Kosmos-2597

operational
NORAD ID: 66647 Int'l Des: 2025-273 Owner: VVKOV Country: RU
LEOCIRCULARPOLAR

About Kosmos-2597

Description loading...

Live Position

Loading 3D Globe...

Upcoming Passes

Altitude History

Altitude vs Time

uPlot chart will show altitude changes over time

Two-Line Element Set

1 66647U 25273A 26014.08722856 .00000016 00000-0 46829-4 0 9999
2 66647 82.4983 266.3478 0011188 189.5927 170.4941 12.42797687 6152
Epoch: Jan 14, 2026 • Age: 15 hours

Current Status

Altitude 1504.8 km
Velocity 7.11 km/s
Sub-Earth Point -44.74°S, 86.89°E
Launch Date Nov 25, 2025
Age 0.1 years
Type other

Technical Details

Classification Payload
Mass 280.00 kg
Dry Mass 280.00 kg
Total Mass 280.00 kg
Length 1.60 m
Diameter 0.80 m
Span 7.00 m
Shape Cyl + Ant
Manufacturer RESH
Bus Type Strela-3M
Phase Status In Orbit
Owner/State VVKOV/RU

Large Constellations

Loading constellations...